Location: Asheville, NC
(35.6000°N, 82.5500°W)
Time: 18:47:35
(UTC-04:00)

ITAMSAT 1 - Pass Details

Date: 15 March 2018
Orbit: 784 x 796 km, 98.9° (Epoch: 20 June)

Event Time Altitude Azimuth Distance (km) Brightness Sun altitude
Rises 06:54:13 0° 352° (N) 3,301 10.9 -10.3°
Reaches altitude 10° 06:57:30 10° 331° (NNW) 2,365 9.9 -9.7°
Maximum altitude 07:00:23 15° 297° (WNW) 2,017 9.3 -9.1°
Enters shadow 07:03:11 10° 263° (W) 2,333 9.4 -8.5°
